Satellite: RS-38
Catalog number: 35869
Epoch time: 10161.77301077
Element set: 380
Inclination: 098.7581 deg
RA of node: 215.6505 deg
Eccentricity: 0.0005310
Arg of perigee: 030.6245 deg
Mean anomaly: 329.5206 deg
Mean motion: 14.21983052 rev/day
Decay rate: 1.77e-06 rev/day^2
Epoch rev: 3781
Checksum: 291
/EX
More information about the Keps
mailing list